Weather History for Cody, WY

Change the Weather History Date:

Monday, October 22, 2012

  Actual Average Record
Temperature  
Mean Temperature 36 °F -  
Max Temperature 44 °F 57 °F 80 °F (2003)
Min Temperature 28 °F 34 °F 11 °F (1936)
Degree Days  
Heating Degree Days 29    
Moisture  
Dew Point 33 °F    
Average Humidity 88    
Maximum Humidity 100    
Minimum Humidity 75    
Precipitation  
Precipitation 0.04 in - - ()
Sea Level Pressure  
Sea Level Pressure 29.73 in    
Wind  
Wind Speed 3 mph (SE)    
Max Wind Speed 12 mph    
Max Gust Speed -    
Visibility 10 miles    
Events      
Averages and records for this station are not official NWS values.
T = Trace of Precipitation, MM = Missing Value Source: NWS Daily Summary

Daily Weather History Graph

Daily Weather History Graph

Search for Another Location

Airport:

Trip Planner

Search our weather history database for the weather conditions in past years. The results will help you decide how hot, cold, wet, or windy it might be!

Date:

Astronomy

Oct. 22, 2012 Rise Set
Actual Time 7:41 AM MDT 6:19 PM MDT
Civil Twilight 7:11 AM MDT 6:48 PM MDT
Nautical Twilight 6:37 AM MDT 7:22 PM MDT
Astronomical Twilight 6:03 AM MDT 7:56 PM MDT
Moon 2:43 PM MDT (10/22) 12:15 AM MDT (10/22)
Length of Visible Light 11h 37m
Length of Day
10h 38m
First Quarter, 57% of the Moon is Illuminated
Oct 22
First Quarter
Oct 29
Full
Nov 6
Last Quarter
Nov 13
New
Nov 20
First Quarter

Hourly Weather History & Observations

Time (MDT) Temp. Windchill Dew Point Humidity Pressure Visibility Wind Dir Wind Speed Gust Speed Precip Events Conditions
12:15 AM 33.8 °F 27.7 °F 30.2 °F 87% 29.84 in 10.0 mi South 6.9 mph - N/A   Clear
12:35 AM 32.0 °F 26.4 °F 28.4 °F 87% 29.84 in 10.0 mi South 5.8 mph - N/A   Clear
12:55 AM 33.8 °F 29.6 °F 28.4 °F 81% 29.84 in 10.0 mi SSW 4.6 mph - N/A   Clear
1:15 AM 33.8 °F 29.6 °F 30.2 °F 87% 29.84 in 10.0 mi SSE 4.6 mph - N/A   Clear
1:35 AM 33.8 °F - 28.4 °F 81% 29.83 in 10.0 mi Calm Calm - N/A   Clear
1:55 AM 30.2 °F 26.7 °F 28.4 °F 93% 29.84 in 10.0 mi NNW 3.5 mph - N/A   Clear
2:55 AM 28.4 °F 23.3 °F 26.6 °F 93% 29.83 in 10.0 mi South 4.6 mph - N/A   Clear
3:15 AM 28.4 °F 24.6 °F 24.8 °F 86% 29.84 in 10.0 mi West 3.5 mph - N/A   Clear
3:35 AM 30.2 °F - 26.6 °F 86% 29.83 in 10.0 mi Calm Calm - N/A   Clear
3:55 AM 30.2 °F 25.4 °F 28.4 °F 93% 29.83 in 10.0 mi SE 4.6 mph - N/A   Partly Cloudy
4:15 AM 30.2 °F - 28.4 °F 93% 29.83 in 10.0 mi Calm Calm - N/A   Mostly Cloudy
4:35 AM 28.4 °F - 26.6 °F 93% 29.84 in 10.0 mi Calm Calm - N/A   Mostly Cloudy
4:55 AM 30.2 °F - 28.4 °F 93% 29.84 in 10.0 mi Calm Calm - N/A   Mostly Cloudy
5:15 AM 28.4 °F - 24.8 °F 86% 29.82 in 10.0 mi Calm Calm - N/A   Scattered Clouds
5:35 AM 30.2 °F 26.7 °F 28.4 °F 93% 29.83 in 10.0 mi SSE 3.5 mph - N/A   Partly Cloudy
6:15 AM 30.2 °F - 26.6 °F 86% 29.82 in 10.0 mi Calm Calm - N/A   Mostly Cloudy
6:35 AM 30.2 °F 26.7 °F 28.4 °F 93% 29.82 in 10.0 mi NNE 3.5 mph - N/A   Overcast
6:55 AM 30.2 °F - 28.4 °F 93% 29.82 in 10.0 mi Calm Calm - N/A   Mostly Cloudy
7:55 AM 33.8 °F - 28.4 °F 81% 29.82 in 10.0 mi Calm Calm - N/A   Scattered Clouds
8:15 AM 33.8 °F - 30.2 °F 87% 29.83 in 10.0 mi Calm Calm - N/A   Mostly Cloudy
8:35 AM 33.8 °F 29.6 °F 30.2 °F 87% 29.84 in 10.0 mi West 4.6 mph - N/A   Overcast
8:55 AM 35.6 °F - 30.2 °F 81% 29.83 in 10.0 mi Calm Calm - N/A   Overcast
9:15 AM 35.6 °F - 32.0 °F 87% 29.82 in 10.0 mi Calm Calm - N/A   Mostly Cloudy
9:35 AM 35.6 °F - 30.2 °F 81% 29.81 in 10.0 mi Calm Calm - N/A   Overcast
9:55 AM 37.4 °F - 30.2 °F 75% 29.81 in 10.0 mi Calm Calm - N/A   Overcast
10:15 AM 37.4 °F - 32.0 °F 81% 29.81 in 10.0 mi Calm Calm - N/A   Overcast
10:35 AM 37.4 °F - 32.0 °F 81% 29.81 in 10.0 mi Calm Calm - N/A   Overcast
10:55 AM 37.4 °F - 33.8 °F 87% 29.80 in 10.0 mi Calm Calm - N/A   Overcast
11:15 AM 37.4 °F - 33.8 °F 87% 29.80 in 10.0 mi Calm Calm - N/A   Mostly Cloudy
11:55 AM 39.2 °F 37.0 °F 35.6 °F 87% 29.77 in 10.0 mi North 3.5 mph - N/A   Overcast
12:15 PM 39.2 °F 37.0 °F 35.6 °F 87% 29.77 in 10.0 mi North 3.5 mph - N/A   Overcast
12:35 PM 39.2 °F 37.0 °F 35.6 °F 87% 29.75 in 10.0 mi North 3.5 mph - N/A   Overcast
1:15 PM 39.2 °F - 35.6 °F 87% 29.73 in 9.0 mi Calm Calm - N/A   Overcast
1:35 PM 39.2 °F - 37.4 °F 93% 29.70 in 10.0 mi Calm Calm - N/A   Overcast
1:55 PM 39.2 °F - 37.4 °F 93% 29.68 in 10.0 mi Calm Calm - N/A   Overcast
2:15 PM 42.8 °F - 37.4 °F 81% 29.67 in 10.0 mi Calm Calm - N/A   Overcast
2:35 PM 42.8 °F - 37.4 °F 81% 29.65 in 10.0 mi Calm Calm - N/A   Overcast
2:55 PM 42.8 °F - 37.4 °F 81% 29.63 in 10.0 mi Calm Calm - N/A   Overcast
3:35 PM 42.8 °F - 37.4 °F 81% 29.62 in 10.0 mi Calm Calm - N/A   Overcast
3:55 PM 42.8 °F - 37.4 °F 81% 29.61 in 10.0 mi Calm Calm - N/A   Overcast
4:15 PM 44.6 °F 42.2 °F 37.4 °F 76% 29.61 in 10.0 mi NE 4.6 mph - N/A   Overcast
4:35 PM 42.8 °F 38.6 °F 39.2 °F 87% 29.63 in 10.0 mi North 6.9 mph - N/A   Overcast
4:55 PM 41.0 °F 35.2 °F 39.2 °F 93% 29.62 in 10.0 mi NNE 9.2 mph - N/A   Overcast
5:15 PM 41.0 °F 37.1 °F 39.2 °F 93% 29.65 in 10.0 mi NE 5.8 mph - N/A   Overcast
5:35 PM 39.2 °F 35.9 °F 37.4 °F 93% 29.66 in 10.0 mi NE 4.6 mph - N/A   Overcast
5:55 PM 39.2 °F 37.0 °F 37.4 °F 93% 29.67 in 7.0 mi East 3.5 mph - N/A   Overcast
6:15 PM 39.2 °F 34.2 °F 39.2 °F 100% 29.64 in 5.0 mi SE 6.9 mph - 0.03 in   Overcast
6:35 PM 39.2 °F 35.9 °F 37.4 °F 93% 29.63 in 10.0 mi ESE 4.6 mph - 0.04 in   Overcast
6:55 PM 39.2 °F 32.0 °F 39.2 °F 100% 29.63 in 10.0 mi SE 11.5 mph - 0.04 in   Scattered Clouds
7:15 PM 39.2 °F 34.2 °F 37.4 °F 93% 29.64 in 10.0 mi South 6.9 mph - N/A   Partly Cloudy
7:55 PM 41.0 °F 36.4 °F 39.2 °F 93% 29.63 in 10.0 mi SSE 6.9 mph - N/A   Partly Cloudy
8:15 PM 41.0 °F 37.1 °F 37.4 °F 87% 29.62 in 10.0 mi SE 5.8 mph - N/A   Partly Cloudy
8:35 PM 41.0 °F 35.8 °F 37.4 °F 87% 29.62 in 10.0 mi SE 8.1 mph - N/A   Clear
8:55 PM 41.0 °F 36.4 °F 37.4 °F 87% 29.62 in 10.0 mi South 6.9 mph - N/A   Clear
9:55 PM 39.2 °F 33.6 °F 37.4 °F 93% 29.63 in 10.0 mi SE 8.1 mph - N/A   Mostly Cloudy
10:15 PM 39.2 °F 33.6 °F 37.4 °F 93% 29.62 in 10.0 mi SSE 8.1 mph - N/A   Partly Cloudy
10:35 PM 37.4 °F 34.9 °F 35.6 °F 93% 29.62 in 10.0 mi North 3.5 mph - N/A   Clear
10:55 PM 35.6 °F - 35.6 °F 100% 29.62 in 0.8 mi Calm Calm - N/A   Overcast
11:15 PM 39.2 °F 35.0 °F 37.4 °F 93% 29.62 in 10.0 mi ESE 5.8 mph - N/A   Scattered Clouds
11:35 PM 39.2 °F 34.2 °F 37.4 °F 93% 29.62 in 10.0 mi SE 6.9 mph - N/A   Mostly Cloudy
11:55 PM 39.2 °F 33.6 °F 37.4 °F 93% 29.62 in 10.0 mi SSE 8.1 mph - N/A   Overcast